Lapse_Rate
1.7 1.8 2.1 2.0 1.6 1.2 0.9 1.0 1.3 1.6 1.7 1.9 2.0 2.2 2.3 2.1 2.1 2.5 2.5 2.1 2.9 4.0
1.5 1.7 1.8 1.9 2.1 2.0 2.0 2.5 2.9 1.8 1.8 2.1 2.2 2.5 2.6 2.6 2.2 2.2 2.6 3.0 3.2 3.4
1.5 2.2 2.2 2.3 2.5 2.6 2.5 2.6 2.3 2.1 2.2 2.2 2.4 2.6 2.9 2.8 3.0 2.8 3.0 3.7 3.6 3.7
1.8 2.3 2.5 2.7 2.8 2.8 2.9 2.9 2.8 2.8 2.8 2.8 2.8 3.0 2.9 2.9 2.9 2.9 3.4 3.9 4.3 4.0
2.4 2.7 2.6 2.8 3.0 3.4 3.3 3.3 3.4 3.5 3.5 3.6 3.3 3.2 3.0 2.9 3.3 3.1 3.1 3.4 3.9 4.2
2.8 2.9 2.7 3.0 3.1 3.2 3.3 3.5 3.4 3.8 3.4 3.5 3.6 3.5 3.7 3.6 3.6 3.9 4.0 4.2 4.5 4.6
2.7 3.1 3.0 2.9 3.2 3.4 3.7 3.8 3.8 3.9 3.9 3.9 3.8 4.3 4.6 5.1 4.9 4.8 5.2 5.5 5.8 5.9
3.2 3.4 3.5 3.8 4.1 4.3 4.5 4.7 4.5 4.7 4.4 4.2 4.3 4.9 5.6 6.6 6.9 7.3 7.3 7.8 8.2 8.2
3.3 3.8 4.0 4.1 4.3 4.5 4.7 4.5 4.5 4.4 4.2 4.1 4.9 5.8 7.0 9.4 8.8 8.8 8.8 8.4 8.4 8.5
2.7 3.3 3.7 4.4 4.6 4.6 4.6 4.5 4.2 4.0 4.1 4.1 4.3 5.5 7.3 9.5 9.2 8.9 8.6 8.5 8.6 8.6
1.8 2.8 3.8 4.1 4.6 4.7 4.9 4.6 4.3 4.0 4.3 4.2 4.6 6.3 9.3 9.6 9.4 8.9 8.4 8.3 8.2 8.3
2.3 2.2 2.9 3.4 3.6 4.5 4.7 4.7 4.6 5.1 5.2 5.3 5.2 6.6 8.9 9.7 9.2 9.0 8.5 9.0 8.8 8.5
2.4 2.3 2.0 3.1 3.4 3.7 4.3 5.1 5.8 5.9 5.9 5.9 5.6 6.1 7.7 9.5 9.4 8.4 8.8 8.8 8.8 9.5
2.8 2.6 2.3 2.5 1.8 2.3 2.3 3.6 3.2 3.9 3.9 4.2 4.8 5.2 7.8 9.8 9.4 9.1 8.9 8.8 8.8 8.7
Wind_Speed
6 3 4 5 5 5 5 7 12 11 12 12 12 12 11 9 8 8 5 7 6 6
4 5 5 8 10 8 10 12 12 13 13 12 12 12 12 8 6 8 6 7 7 6
7 9 9 9 7 9 11 11 12 13 13 13 12 12 12 8 10 7 6 7 7 8
5 9 10 9 10 10 12 12 12 13 13 13 12 13 10 8 9 9 8 8 9 11
7 8 7 7 11 13 12 13 13 13 12 12 12 13 9 10 10 10 11 10 10 12
7 7 7 8 12 13 13 13 14 14 9 9 11 10 12 10 11 11 12 12 12 13
7 8 7 10 12 12 13 12 12 13 13 14 14 15 14 12 12 11 12 13 13 14
8 7 8 9 10 12 12 13 14 13 13 15 14 13 9 12 12 13 14 14 14 14
8 8 8 9 9 9 9 10 12 11 12 12 9 21 22 19 12 14 14 14 14 12
8 8 8 9 9 9 10 10 11 11 12 13 12 22 23 24 12 13 13 15 15 13
6 8 8 8 9 10 9 10 10 11 12 13 12 22 23 24 14 13 14 15 16 16
7 7 8 8 9 9 9 10 10 12 12 12 13 23 24 21 13 14 15 15 15 16
7 7 8 9 9 8 8 12 11 13 12 17 15 21 24 19 11 13 12 15 16 25
7 8 8 8 5 7 9 11 10 12 12 13 14 15 23 23 13 11 12 12 12 10
Wind_Direction
338 328 308 306 305 302 302 307 308 310 322 316 312 307 304 297 294 293 295 280 271 279
320 312 300 302 298 292 294 302 308 314 305 301 298 297 294 290 288 281 279 280 282 276
313 302 301 296 291 295 295 295 299 301 300 300 295 289 285 281 279 280 281 282 276 276
297 301 298 296 295 295 296 296 293 294 294 292 292 290 286 277 276 268 275 276 277 279
297 297 292 290 294 296 292 290 287 286 285 284 288 289 287 287 289 285 283 283 279 276
284 283 282 284 290 291 290 290 290 294 291 290 290 289 283 278 277 275 274 276 274 274
276 281 284 288 288 290 289 290 291 291 290 287 285 285 283 281 277 271 269 270 269 271
281 277 277 277 278 282 284 286 289 288 287 284 281 278 271 272 275 277 277 274 272 272
268 270 271 274 275 281 285 285 287 283 283 282 280 283 288 288 281 278 279 280 278 277
258 266 266 271 277 279 282 286 282 282 281 279 277 284 287 286 288 288 285 282 282 283
251 258 264 264 271 278 280 283 285 284 280 277 278 285 291 294 291 289 286 283 278 275
249 253 258 261 263 269 276 280 282 281 277 277 284 288 291 298 298 287 284 282 276 273
239 240 246 254 260 263 268 280 285 288 287 284 289 290 293 294 286 287 284 280 274 274
241 242 245 253 245 259 266 277 277 282 281 278 276 280 288 292 290 284 283 282 280 279